Weather History for KAWM - December, 2012

Change the Weather History Date:

Sunday, December 9, 2012

  Actual Average Record
Temperature  
Mean Temperature 62 °F -  
Max Temperature 68 °F 52 °F 75 °F (2007)
Min Temperature 54 °F 34 °F 9 °F (1988)
Degree Days  
Heating Degree Days 4    
Growing Degree Days 12 (Base 50)    
Moisture  
Dew Point 61 °F    
Average Humidity 93    
Maximum Humidity 100    
Minimum Humidity 83    
Precipitation  
Precipitation 0.84 in - - ()
Sea Level Pressure  
Sea Level Pressure 29.83 in    
Wind  
Wind Speed 8 mph (SSW)    
Max Wind Speed 15 mph    
Max Gust Speed 26 mph    
Visibility 8 miles    
Events Rain , Thunderstorm    
Averages and records for this station are not official NWS values.
T = Trace of Precipitation, MM = Missing Value Source: NWS Daily Summary

Daily Weather History Graph

Daily Weather History Graph

Search for Another Location

Airport or City:

Trip Planner

Search our weather history database for the weather conditions in past years. The results will help you decide how hot, cold, wet, or windy it might be!

Date:

Astronomy

Dec. 09, 2012 Rise Set
Actual Time 6:57 AM CST 4:49 PM CST
Civil Twilight 6:29 AM CST 5:17 PM CST
Nautical Twilight 5:58 AM CST 5:48 PM CST
Astronomical Twilight 5:27 AM CST 6:19 PM CST
Moon 2:37 AM CST (12/9) 1:50 PM CST (12/9)
Length of Visible Light 10h 47m
Length of Day
9h 51m
Waning Crescent, 18% of the Moon is Illuminated
Dec 9
Waning Crescent
Dec 13
New
Dec 19
First Quarter
Dec 28
Full
Jan 4
Last Quarter

Hourly Weather History & Observations

Time (CST) Temp. Dew Point Humidity Pressure Visibility Wind Dir Wind Speed Gust Speed Precip Events Conditions
12:08 AM 59.0 °F 59.0 °F 100% 29.88 in 1.0 mi SSE 3.5 mph - N/A   Mostly Cloudy
12:15 AM 59.0 °F 59.0 °F 100% 29.88 in 3.0 mi SE 3.5 mph - N/A   Overcast
12:45 AM 60.8 °F 60.8 °F 100% 29.87 in 6.0 mi SE 5.8 mph - N/A Thunderstorm Overcast
12:53 AM 61.0 °F 60.1 °F 97% 29.86 in 7.0 mi SSE 6.9 mph - N/A Thunderstorm Overcast
1:00 AM 60.8 °F 60.8 °F 100% 29.86 in 8.0 mi SSE 9.2 mph - N/A   Overcast
1:29 AM 60.8 °F 60.8 °F 100% 29.86 in 8.0 mi South 8.1 mph - N/A   Overcast
1:53 AM 60.1 °F 60.1 °F 100% 29.86 in 10.0 mi South 8.1 mph - N/A   Scattered Clouds
2:53 AM 62.1 °F 60.1 °F 93% 29.85 in 10.0 mi South 9.2 mph - N/A   Mostly Cloudy
3:53 AM 63.0 °F 60.1 °F 90% 29.84 in 10.0 mi South 12.7 mph - N/A   Mostly Cloudy
4:26 AM 62.6 °F 60.8 °F 94% 29.84 in 10.0 mi SSW 13.8 mph - N/A   Mostly Cloudy
4:33 AM 62.6 °F 60.8 °F 94% 29.84 in 10.0 mi South 10.4 mph - N/A   Mostly Cloudy
4:45 AM 62.6 °F 60.8 °F 94% 29.84 in 10.0 mi SSW 9.2 mph - N/A   Overcast
4:53 AM 63.0 °F 60.1 °F 90% 29.84 in 10.0 mi SSW 9.2 mph - N/A   Overcast
5:26 AM 62.6 °F 60.8 °F 94% 29.85 in 10.0 mi SSW 10.4 mph - N/A Thunderstorm Overcast
5:44 AM 62.6 °F 60.8 °F 94% 29.88 in 1.8 mi West 9.2 mph - 0.00 in Rain , Thunderstorm Heavy Thunderstorms and Rain
5:53 AM 62.1 °F 60.1 °F 93% 29.88 in 2.5 mi WSW 9.2 mph 18.4 mph 0.12 in Rain , Thunderstorm Light Thunderstorms and Rain
6:01 AM 62.6 °F 60.8 °F 94% 29.87 in 4.0 mi SW 5.8 mph - 0.09 in Rain , Thunderstorm Light Thunderstorms and Rain
6:21 AM 62.6 °F 60.8 °F 94% 29.88 in 10.0 mi SSW 8.1 mph - 0.13 in Rain Light Rain
6:53 AM 62.1 °F 61.0 °F 96% 29.88 in 5.0 mi SSW 8.1 mph - 0.19 in Rain Light Rain
7:53 AM 62.1 °F 61.0 °F 96% 29.88 in 9.0 mi SSW 3.5 mph - 0.09 in Rain Light Rain
8:28 AM 62.6 °F 60.8 °F 94% 29.89 in 10.0 mi Calm Calm - 0.00 in   Overcast
8:46 AM 62.6 °F 60.8 °F 94% 29.88 in 10.0 mi SSE 4.6 mph - 0.00 in   Overcast
8:53 AM 62.1 °F 61.0 °F 96% 29.88 in 10.0 mi SSE 4.6 mph - 0.00 in   Overcast
9:15 AM 62.6 °F 62.6 °F 100% 29.89 in 8.0 mi South 11.5 mph - N/A Thunderstorm Overcast
9:28 AM 62.6 °F 62.6 °F 100% 29.89 in 9.0 mi South 12.7 mph - N/A   Overcast
9:35 AM 62.6 °F 62.6 °F 100% 29.89 in 4.0 mi South 11.5 mph - 0.01 in Rain Light Rain
9:44 AM 62.6 °F 62.6 °F 100% 29.90 in 2.5 mi SSW 11.5 mph - 0.05 in Rain Rain
9:53 AM 64.0 °F 62.1 °F 93% 29.89 in 10.0 mi SSW 9.2 mph - 0.07 in   Overcast
10:31 AM 64.4 °F 62.6 °F 94% 29.89 in 10.0 mi South 11.5 mph - 0.05 in   Overcast
10:50 AM 64.4 °F 62.6 °F 94% 29.89 in 10.0 mi South 13.8 mph - 0.05 in   Overcast
10:51 AM 64.0 °F 62.1 °F 93% 29.88 in 10.0 mi South 13.8 mph - 0.05 in   Overcast
11:35 AM 64.4 °F 60.8 °F 88% 29.86 in 10.0 mi South 12.7 mph - N/A   Overcast
11:53 AM 64.0 °F 60.1 °F 87% 29.85 in 10.0 mi SSW 10.4 mph - N/A   Overcast
12:53 PM 66.0 °F 61.0 °F 84% 29.82 in 10.0 mi SSW 9.2 mph - N/A   Overcast
1:24 PM 68.0 °F 62.6 °F 83% 29.81 in 10.0 mi South 12.7 mph - N/A   Mostly Cloudy
1:53 PM 66.9 °F 63.0 °F 87% 29.80 in 10.0 mi SSW 8.1 mph - N/A   Mostly Cloudy
2:37 PM 66.2 °F 62.6 °F 88% 29.80 in 10.0 mi SSW 6.9 mph - N/A   Overcast
2:53 PM 66.9 °F 64.0 °F 90% 29.78 in 9.0 mi SSW 6.9 mph - 0.00 in Rain Light Rain
3:12 PM 66.2 °F 64.4 °F 94% 29.78 in 6.0 mi SSW 9.2 mph - 0.02 in Rain , Thunderstorm Light Rain
3:27 PM 66.2 °F 64.4 °F 94% 29.78 in 10.0 mi South 8.1 mph - 0.02 in Rain Light Rain
3:53 PM 66.0 °F 64.0 °F 93% 29.77 in 10.0 mi South 11.5 mph - 0.03 in   Overcast
4:53 PM 66.9 °F 63.0 °F 87% 29.76 in 10.0 mi SSW 15.0 mph - N/A   Scattered Clouds
5:53 PM 66.9 °F 63.0 °F 87% 29.77 in 10.0 mi SSW 12.7 mph - N/A   Clear
6:53 PM 66.9 °F 64.0 °F 90% 29.76 in 10.0 mi SSW 11.5 mph - N/A   Scattered Clouds
7:09 PM 66.2 °F 64.4 °F 94% 29.77 in 10.0 mi SSW 11.5 mph - N/A   Mostly Cloudy
7:32 PM 66.2 °F 64.4 °F 94% 29.77 in 10.0 mi SSW 11.5 mph - N/A   Overcast
7:49 PM 68.0 °F 64.4 °F 88% 29.78 in 10.0 mi SSW 10.4 mph - N/A   Overcast
7:53 PM 66.9 °F 64.0 °F 90% 29.77 in 10.0 mi South 12.7 mph - N/A   Overcast
8:33 PM 66.2 °F 64.4 °F 94% 29.76 in 10.0 mi SSW 9.2 mph - N/A   Scattered Clouds
8:45 PM 66.2 °F 64.4 °F 94% 29.77 in 10.0 mi SSW 6.9 mph 16.1 mph N/A Thunderstorm Scattered Clouds
8:53 PM 64.0 °F 60.1 °F 87% 29.80 in 9.0 mi NW 13.8 mph 26.5 mph N/A Thunderstorm Mostly Cloudy
9:24 PM 60.8 °F 57.2 °F 88% 29.81 in 2.5 mi WNW 6.9 mph - 0.07 in Rain , Thunderstorm Thunderstorms and Rain
9:44 PM 60.8 °F 59.0 °F 94% 29.79 in 4.0 mi NNW 4.6 mph - 0.15 in Rain , Thunderstorm Light Rain
9:53 PM 60.1 °F 59.0 °F 96% 29.78 in 6.0 mi NW 4.6 mph - 0.18 in Rain , Thunderstorm Light Rain
10:02 PM 60.8 °F 59.0 °F 94% 29.77 in 7.0 mi Variable 3.5 mph - 0.03 in Rain , Thunderstorm Light Rain
10:11 PM 59.0 °F 57.2 °F 94% 29.78 in 10.0 mi NW 10.4 mph 16.1 mph 0.06 in Rain , Thunderstorm Light Rain
10:19 PM 57.2 °F 57.2 °F 100% 29.79 in 10.0 mi NW 10.4 mph 20.7 mph 0.09 in   Overcast
10:53 PM 55.9 °F 54.0 °F 93% 29.80 in 10.0 mi NW 10.4 mph 20.7 mph 0.11 in   Overcast
11:53 PM 54.0 °F 52.0 °F 93% 29.81 in 9.0 mi North 9.2 mph 17.3 mph 0.00 in Rain Light Rain